Retour au catalogue

STARLINK-37054

ActifCommunicationsVLEO
NORAD 68082·PAYLOAD·🇺🇸 United States

Lancé Mar 4, 2026 depuis Vandenberg Space Force Base

Loading…

Prochains Passages (prochaines 24 heures)

TLE

FraisSource: CelesTrak SupGP

Époque: Sep 15, 2026, 03:11 UTC

1 68082C 26042P   26258.13312500  .00053593  00000+0  15830-2 0  2587
2 68082  53.1607  14.6923 0001182  80.5212  45.8064 15.34372865    15

Suivez STARLINK-37054 en temps réel avec AllMySat

Download on the App Store